Weather History for KPDK - November, 2012

Change the Weather History Date:

Monday, November 26, 2012

  Actual Average Record
Temperature  
Mean Temperature 48 °F 50 °F  
Max Temperature 66 °F 60 °F 71 °F (2001)
Min Temperature 30 °F 40 °F 30 °F (2004)
Degree Days  
Heating Degree Days 17 15  
Month to date heating degree days 310  
Since 1 July heating degree days 462  
Moisture  
Dew Point 26 °F    
Average Humidity 49    
Maximum Humidity 85    
Minimum Humidity 17    
Precipitation  
Precipitation 0.00 in 0.15 in 1.31 in (2013)
Month to date precipitation 3.60  
Year to date precipitation 48.19  
Sea Level Pressure  
Sea Level Pressure 30.19 in    
Wind  
Wind Speed 1 mph (SSW)    
Max Wind Speed 8 mph    
Max Gust Speed -    
Visibility 10 miles    
Events      
T = Trace of Precipitation, MM = Missing Value Source: NWS Daily Summary

Daily Weather History Graph

Daily Weather History Graph

Search for Another Location

Airport or City:

Trip Planner

Search our weather history database for the weather conditions in past years. The results will help you decide how hot, cold, wet, or windy it might be!

Date:

Astronomy

Nov. 26, 2012 Rise Set
Actual Time 7:20 AM EST 5:29 PM EST
Civil Twilight 6:53 AM EST 5:56 PM EST
Nautical Twilight 6:22 AM EST 6:26 PM EST
Astronomical Twilight 5:52 AM EST 6:56 PM EST
Moon 4:18 PM EST (11/26) 5:32 AM EST (11/26)
Length of Visible Light 11h 03m
Length of Day
10h 08m
Waxing Gibbous, 97% of the Moon is Illuminated
Nov 26
Waxing Gibbous
Nov 28
Full
Dec 6
Last Quarter
Dec 13
New
Dec 20
First Quarter

Hourly Weather History & Observations

Time (EST) Temp. Dew Point Humidity Pressure Visibility Wind Dir Wind Speed Gust Speed Precip Events Conditions
12:53 AM 33.1 °F 25.0 °F 72% 30.16 in 10.0 mi Calm Calm - N/A   Clear
1:53 AM 30.9 °F 26.1 °F 82% 30.16 in 10.0 mi Calm Calm - N/A   Clear
2:53 AM 32.0 °F 26.1 °F 79% 30.16 in 10.0 mi Calm Calm - N/A   Clear
3:53 AM 32.0 °F 26.1 °F 79% 30.17 in 10.0 mi Calm Calm - N/A   Clear
4:53 AM 30.9 °F 26.1 °F 82% 30.18 in 10.0 mi Calm Calm - N/A   Clear
5:53 AM 30.0 °F 26.1 °F 85% 30.20 in 9.0 mi Calm Calm - N/A   Clear
6:53 AM 30.0 °F 26.1 °F 85% 30.23 in 10.0 mi Calm Calm - N/A   Clear
7:53 AM 33.1 °F 28.0 °F 82% 30.25 in 9.0 mi Calm Calm - N/A   Clear
8:53 AM 42.1 °F 30.0 °F 62% 30.25 in 9.0 mi Calm Calm - N/A   Clear
9:53 AM 50.0 °F 28.0 °F 43% 30.25 in 10.0 mi Calm Calm - N/A   Clear
10:53 AM 55.9 °F 25.0 °F 30% 30.25 in 10.0 mi WNW 4.6 mph - N/A   Clear
11:53 AM 60.1 °F 26.1 °F 27% 30.22 in 10.0 mi Calm Calm - N/A   Clear
12:53 PM 62.1 °F 24.1 °F 23% 30.19 in 10.0 mi SW 4.6 mph - N/A   Clear
1:53 PM 64.0 °F 19.9 °F 18% 30.18 in 10.0 mi South 5.8 mph - N/A   Clear
2:53 PM 64.9 °F 21.0 °F 19% 30.15 in 10.0 mi SW 6.9 mph - N/A   Clear
3:53 PM 66.0 °F 19.0 °F 17% 30.15 in 10.0 mi South 8.1 mph - N/A   Clear
4:53 PM 63.0 °F 21.9 °F 21% 30.15 in 10.0 mi SSE 5.8 mph - N/A   Clear
5:53 PM 59.0 °F 25.0 °F 27% 30.16 in 10.0 mi SSE 3.5 mph - N/A   Clear
6:53 PM 57.9 °F 25.0 °F 28% 30.17 in 10.0 mi Calm Calm - N/A   Overcast
7:53 PM 55.0 °F 26.1 °F 33% 30.18 in 10.0 mi Calm Calm - N/A   Mostly Cloudy
8:53 PM 53.1 °F 28.0 °F 38% 30.18 in 10.0 mi Calm Calm - N/A   Overcast
9:53 PM 52.0 °F 28.0 °F 40% 30.17 in 10.0 mi Calm Calm - N/A   Partly Cloudy
10:53 PM 50.0 °F 28.9 °F 44% 30.17 in 10.0 mi Calm Calm - N/A   Mostly Cloudy
11:53 PM 51.1 °F 35.1 °F 54% 30.17 in 10.0 mi Calm Calm - N/A   Overcast